Kahului, HI

11:58 AM HST on February 23, 2017 (GMT -1000)
Kahului

Weather History for PHOG - February, 2011

Change the Weather History Date:

Saturday, February 5, 2011

  Actual Average Record
Temperature  
Mean Temperature 72 °F 72 °F  
Max Temperature 85 °F 81 °F 87 °F (1985)
Min Temperature 58 °F 63 °F 50 °F (1973)
Degree Days  
Heating Degree Days 0 0  
Month to date heating degree days 0 0  
Since 1 July heating degree days 0 0  
Cooling Degree Days 7 7  
Month to date cooling degree days 30 35  
Year to date cooling degree days 237 252  
Growing Degree Days 20 (Base 50)    
Moisture  
Dew Point 61 °F    
Average Humidity 69    
Maximum Humidity 90    
Minimum Humidity 47    
Precipitation  
Precipitation 0.00 in 0.07 in 1.00 in (1979)
Month to date precipitation 0.00 0.38  
Year to date precipitation 4.31 3.25  
Snow  
Snow 0.00 in - - ()
Month to date snowfall 0.0  
Since 1 July snowfall 0.0  
Snow Depth 0.00 in    
Sea Level Pressure  
Sea Level Pressure 30.03 in    
Wind  
Wind Speed 5 mph (SSE)    
Max Wind Speed 14 mph    
Max Gust Speed 20 mph    
Visibility 10 miles    
Events      
T = Trace of Precipitation, MM = Missing Value Source: NWS Daily Summary

Daily Weather History Graph

Daily Weather History Graph

Search for Another Location

Airport or City:

Trip Planner

Search our weather history database for the weather conditions in past years. The results will help you decide how hot, cold, wet, or windy it might be!

Date:

Astronomy

Feb. 05, 2011 Rise Set
Actual Time 7:00 AM HST 6:18 PM HST
Civil Twilight 6:37 AM HST 6:41 PM HST
Nautical Twilight 6:11 AM HST 7:08 PM HST
Astronomical Twilight 5:45 AM HST 7:34 PM HST
Moon 8:25 AM HST (2/5) 8:45 PM HST (2/5)
Length of Visible Light 12h 03m
Length of Day
11h 17m
Waxing Crescent, 7% of the Moon is Illuminated
Feb 5
Waxing Crescent
Feb 10
First Quarter
Feb 17
Full
Feb 24
Last Quarter
Mar 4
New

Hourly Weather History & Observations

Time (HST) Temp. Heat Index Dew Point Humidity Pressure Visibility Wind Dir Wind Speed Gust Speed Precip Events Conditions
12:54 AM 64.0 °F - 60.1 °F 87% 30.08 in 10.0 mi South 3.5 mph - N/A   Clear
1:54 AM 62.1 °F - 59.0 °F 90% 30.07 in 10.0 mi SSW 4.6 mph - N/A   Clear
2:54 AM 61.0 °F - 57.0 °F 87% 30.06 in 9.0 mi SSE 6.9 mph - N/A   Clear
3:54 AM 61.0 °F - 55.9 °F 83% 30.06 in 10.0 mi South 3.5 mph - N/A   Clear
4:54 AM 62.1 °F - 55.9 °F 80% 30.05 in 10.0 mi SE 9.2 mph - N/A   Clear
5:54 AM 61.0 °F - 55.0 °F 81% 30.06 in 10.0 mi SSE 6.9 mph - N/A   Clear
6:54 AM 59.0 °F - 54.0 °F 83% 30.07 in 10.0 mi Calm Calm - N/A   Clear
7:54 AM 63.0 °F - 57.0 °F 81% 30.08 in 10.0 mi NW 3.5 mph - N/A   Clear
8:54 AM 73.9 °F - 64.0 °F 71% 30.08 in 10.0 mi NNW 8.1 mph - N/A   Clear
9:54 AM 78.1 °F - 63.0 °F 60% 30.07 in 10.0 mi NW 6.9 mph - N/A   Clear
10:54 AM 79.0 °F - 60.1 °F 52% 30.05 in 10.0 mi NNW 5.8 mph - N/A   Clear
11:54 AM 81.0 °F 81.7 °F 61.0 °F 50% 30.02 in 10.0 mi Variable 3.5 mph - N/A   Partly Cloudy
12:54 PM 82.9 °F 83.3 °F 61.0 °F 47% 29.99 in 10.0 mi Variable 4.6 mph - N/A   Partly Cloudy
1:54 PM 82.9 °F 84.0 °F 63.0 °F 51% 29.96 in 10.0 mi NNE 9.2 mph - N/A   Scattered Clouds
2:54 PM 82.9 °F 84.4 °F 64.0 °F 53% 29.94 in 10.0 mi NNE 6.9 mph - N/A   Scattered Clouds
3:54 PM 79.0 °F - 64.0 °F 60% 29.96 in 10.0 mi North 9.2 mph 16.1 mph N/A   Mostly Cloudy
4:54 PM 78.1 °F - 63.0 °F 60% 29.97 in 10.0 mi SW 6.9 mph - N/A   Mostly Cloudy
5:54 PM 75.0 °F - 66.0 °F 73% 29.99 in 10.0 mi South 4.6 mph - N/A   Scattered Clouds
6:54 PM 75.0 °F - 64.9 °F 71% 30.02 in 10.0 mi SSE 3.5 mph - N/A   Overcast
7:54 PM 73.0 °F - 66.0 °F 79% 30.03 in 10.0 mi ENE 3.5 mph - N/A   Overcast
8:54 PM 72.0 °F - 64.9 °F 78% 30.03 in 10.0 mi SSE 3.5 mph - N/A   Partly Cloudy
9:54 PM 71.1 °F - 64.0 °F 78% 30.04 in 10.0 mi Calm Calm - N/A   Clear
10:54 PM 66.9 °F - 63.0 °F 87% 30.04 in 9.0 mi Calm Calm - N/A   Clear
11:54 PM 66.9 °F - 62.1 °F 84% 30.01 in 10.0 mi SSE 3.5 mph - N/A   Clear